• In Austria
  • List of Countries
  • For 7 days
  • Water Temperature
  • Satellite Maps
  • Weather Map
  • News
  • Weather Widgets
  • user-avatar
    Login

    Hourly Weather Kęty

    Today, 20 September, Thursday

    Time Temperature Precipitation Wind Pressure Humidity
    00:00 +17°C° 0 mm 2 mps 740 mmHg 72%
    01:00 +16°C° 0 mm 2 mps 740 mmHg 73%
    02:00 +16°C° 0 mm 2 mps 740 mmHg 73%
    03:00 +16°C° 0 mm 2 mps 740 mmHg 74%
    04:00 +16°C° 0 mm 2 mps 740 mmHg 75%
    05:00 +16°C° 0 mm 2 mps 740 mmHg 73%
    06:00 +17°C° 0 mm 2 mps 740 mmHg 71%
    07:00 +18°C° 0 mm 2 mps 741 mmHg 69%
    08:00 +21°C° 0 mm 1 mps 741 mmHg 61%
    09:00 +24°C° 0 mm 1 mps 741 mmHg 53%
    10:00 +26°C° 0 mm 1 mps 741 mmHg 46%
    11:00 +27°C° 0 mm 1 mps 741 mmHg 43%
    12:00 +28°C° 0 mm 1 mps 741 mmHg 39%
    13:00 +29°C° 0 mm 1 mps 740 mmHg 36%
    14:00 +28°C° 0 mm 1 mps 740 mmHg 38%
    15:00 +26°C° 0 mm 0 mps 740 mmHg 39%
    16:00 +26°C° 0 mm 0 mps 739 mmHg 40%
    17:00 +23°C° 0 mm 0 mps 739 mmHg 45%
    18:00 +23°C° 0 mm 1 mps 739 mmHg 50%
    19:00 +21°C° 0 mm 1 mps 739 mmHg 55%
    20:00 +20°C° 0 mm 1 mps 739 mmHg 58%
    21:00 +20°C° 0 mm 1 mps 739 mmHg 61%
    22:00 +19°C° 0 mm 1 mps 739 mmHg 63%
    23:00 +19°C° 0 mm 1 mps 739 mmHg 65%

    Tomorrow, 21 September, Friday

    Time Temperature Precipitation Wind Pressure Humidity
    00:00 +18°C° 0 mm 1 mps 739 mmHg 67%
    01:00 +18°C° 0 mm 1 mps 739 mmHg 69%
    02:00 +17°C° 0 mm 2 mps 738 mmHg 70%
    03:00 +17°C° 0 mm 2 mps 738 mmHg 71%
    04:00 +16°C° 0 mm 2 mps 738 mmHg 72%
    05:00 +17°C° 0 mm 2 mps 738 mmHg 70%
    06:00 +18°C° 0 mm 2 mps 738 mmHg 68%
    07:00 +19°C° 0 mm 2 mps 738 mmHg 67%
    08:00 +21°C° 0 mm 2 mps 737 mmHg 59%
    09:00 +24°C° 0 mm 3 mps 737 mmHg 51%
    10:00 +27°C° 0 mm 4 mps 737 mmHg 43%
    11:00 +27°C° 0 mm 4 mps 737 mmHg 41%
    12:00 +28°C° 0 mm 5 mps 736 mmHg 40%
    13:00 +29°C° 0 mm 5 mps 736 mmHg 38%
    14:00 +28°C° 0 mm 5 mps 735 mmHg 40%
    15:00 +28°C° 0 mm 5 mps 735 mmHg 42%
    16:00 +27°C° 0 mm 4 mps 734 mmHg 45%
    17:00 +25°C° 0 mm 4 mps 734 mmHg 50%
    18:00 +22°C° 0 mm 4 mps 734 mmHg 55%
    19:00 +21°C° 0 mm 3 mps 734 mmHg 60%
    20:00 +20°C° 0 mm 3 mps 734 mmHg 59%
    21:00 +20°C° 0 mm 4 mps 734 mmHg 59%
    22:00 +20°C° 0 mm 4 mps 735 mmHg 58%
    23:00 +19°C° 0.2 mm 4 mps 735 mmHg 63%

    Day after tomorrow, 22 September, Saturday

    Time Temperature Precipitation Wind Pressure Humidity
    00:00 +19°C° 0.2 mm 4 mps 735 mmHg 68%
    01:00 +18°C° 0.2 mm 4 mps 736 mmHg 73%
    02:00 +17°C° 0.5 mm 4 mps 736 mmHg 77%
    03:00 +16°C° 0.5 mm 3 mps 737 mmHg 80%
    04:00 +14°C° 0.5 mm 3 mps 738 mmHg 84%
    05:00 +13°C° 0.2 mm 3 mps 738 mmHg 83%
    06:00 +14°C° 0.2 mm 2 mps 739 mmHg 83%
    07:00 +13°C° 0.2 mm 2 mps 739 mmHg 82%
    08:00 +13°C° 0.7 mm 2 mps 740 mmHg 80%
    09:00 +13°C° 0.7 mm 2 mps 740 mmHg 79%
    10:00 +13°C° 0.7 mm 2 mps 740 mmHg 77%
    11:00 +13°C° 0.1 mm 3 mps 740 mmHg 71%
    12:00 +14°C° 0.1 mm 3 mps 740 mmHg 64%
    13:00 +16°C° 0.1 mm 3 mps 740 mmHg 58%
    14:00 +16°C° 0 mm 3 mps 740 mmHg 55%
    15:00 +17°C° 0 mm 4 mps 740 mmHg 52%
    16:00 +17°C° 0 mm 4 mps 740 mmHg 49%
    17:00 +16°C° 0 mm 3 mps 740 mmHg 53%
    18:00 +14°C° 0 mm 3 mps 740 mmHg 57%
    19:00 +14°C° 0 mm 2 mps 740 mmHg 60%
    20:00 +13°C° 0 mm 2 mps 740 mmHg 63%
    21:00 +12°C° 0 mm 2 mps 741 mmHg 65%
    22:00 +10°C° 0 mm 2 mps 741 mmHg 67%
    23:00 +10°C° 0 mm 2 mps 741 mmHg 69%

    23 September, Sunday

    Time Temperature Precipitation Wind Pressure Humidity
    00:00 +10°C° 0 mm 2 mps 741 mmHg 71%
    01:00 +10°C° 0 mm 2 mps 741 mmHg 73%
    02:00 +9°C° 0 mm 2 mps 740 mmHg 74%
    03:00 +9°C° 0 mm 2 mps 740 mmHg 75%
    04:00 +9°C° 0 mm 2 mps 740 mmHg 77%
    05:00 +10°C° 0 mm 3 mps 740 mmHg 74%
    06:00 +10°C° 0 mm 3 mps 740 mmHg 72%
    07:00 +11°C° 0 mm 3 mps 740 mmHg 70%
    08:00 +12°C° 0 mm 4 mps 740 mmHg 64%
    09:00 +14°C° 0 mm 4 mps 739 mmHg 58%
    10:00 +15°C° 0 mm 5 mps 739 mmHg 53%
    11:00 +15°C° 0 mm 5 mps 738 mmHg 55%
    12:00 +16°C° 0 mm 5 mps 738 mmHg 56%
    13:00 +16°C° 0 mm 5 mps 737 mmHg 58%
    14:00 +16°C° 0 mm 5 mps 736 mmHg 60%
    15:00 +16°C° 0 mm 6 mps 735 mmHg 63%
    16:00 +16°C° 0 mm 6 mps 734 mmHg 65%
    17:00 +15°C° 1.2 mm 6 mps 733 mmHg 71%
    18:00 +15°C° 1.2 mm 6 mps 733 mmHg 76%
    19:00 +14°C° 1.2 mm 6 mps 732 mmHg 82%
    20:00 +15°C° 0.1 mm 6 mps 731 mmHg 78%
    21:00 +15°C° 0.1 mm 6 mps 730 mmHg 75%
    22:00 +15°C° 0.1 mm 6 mps 730 mmHg 71%
    23:00 +16°C° 0.2 mm 7 mps 729 mmHg 72%

    24 September, Monday

    Time Temperature Precipitation Wind Pressure Humidity
    00:00 +17°C° 0.2 mm 7 mps 728 mmHg 72%
    01:00 +17°C° 0.2 mm 7 mps 727 mmHg 73%
    02:00 +17°C° 1.5 mm 8 mps 727 mmHg 76%
    03:00 +17°C° 1.5 mm 9 mps 727 mmHg 79%
    04:00 +17°C° 1.5 mm 10 mps 727 mmHg 82%
    05:00 +14°C° 0.4 mm 10 mps 728 mmHg 81%
    06:00 +11°C° 0.4 mm 10 mps 730 mmHg 79%
    07:00 +8°C° 0.4 mm 11 mps 732 mmHg 78%
    08:00 +8°C° 0.1 mm 10 mps 733 mmHg 75%
    09:00 +8°C° 0.1 mm 10 mps 734 mmHg 72%
    10:00 +8°C° 0.1 mm 9 mps 735 mmHg 69%
    11:00 +10°C° 0 mm 9 mps 736 mmHg 63%
    12:00 +11°C° 0 mm 9 mps 737 mmHg 56%
    13:00 +12°C° 0 mm 9 mps 738 mmHg 50%
    14:00 +12°C° 0 mm 9 mps 739 mmHg 51%
    15:00 +11°C° 0 mm 8 mps 739 mmHg 51%
    16:00 +11°C° 0 mm 7 mps 740 mmHg 51%
    17:00 +10°C° 0 mm 6 mps 741 mmHg 55%
    18:00 +10°C° 0 mm 5 mps 741 mmHg 59%
    19:00 +10°C° 0 mm 4 mps 742 mmHg 63%
    20:00 +8°C° 0 mm 4 mps 742 mmHg 68%
    21:00 +8°C° 0 mm 4 mps 743 mmHg 72%
    22:00 +8°C° 0 mm 3 mps 743 mmHg 76%
    23:00 +8°C° 0 mm 3 mps 743 mmHg 78%

    25 September, Tuesday

    Time Temperature Precipitation Wind Pressure Humidity
    00:00 +8°C° 0 mm 3 mps 744 mmHg 81%
    01:00 +7°C° 0 mm 3 mps 744 mmHg 83%
    02:00 +7°C° 0 mm 3 mps 744 mmHg 83%
    03:00 +5°C° 0 mm 3 mps 745 mmHg 84%
    04:00 +5°C° 0 mm 3 mps 745 mmHg 84%
    05:00 +5°C° 0 mm 3 mps 745 mmHg 82%
    06:00 +7°C° 0 mm 3 mps 745 mmHg 81%
    07:00 +6°C° 0 mm 4 mps 746 mmHg 79%
    08:00 +7°C° 0 mm 4 mps 746 mmHg 74%
    09:00 +8°C° 0 mm 4 mps 746 mmHg 69%
    10:00 +10°C° 0 mm 4 mps 746 mmHg 64%
    11:00 +10°C° 0 mm 5 mps 745 mmHg 59%
    12:00 +10°C° 0 mm 5 mps 745 mmHg 55%
    13:00 +12°C° 0 mm 5 mps 745 mmHg 50%
    14:00 +12°C° 0 mm 5 mps 744 mmHg 51%
    15:00 +12°C° 0 mm 5 mps 744 mmHg 51%
    16:00 +12°C° 0 mm 5 mps 744 mmHg 52%
    17:00 +11°C° 0.6 mm 4 mps 744 mmHg 63%
    18:00 +10°C° 0.6 mm 4 mps 744 mmHg 74%
    19:00 +7°C° 0.6 mm 4 mps 745 mmHg 85%
    20:00 +8°C° 0.3 mm 3 mps 745 mmHg 86%
    21:00 +8°C° 0.3 mm 3 mps 745 mmHg 88%
    22:00 +8°C° 0.3 mm 2 mps 745 mmHg 90%
    23:00 +7°C° 0.1 mm 2 mps 746 mmHg 91%
    Show more